Regional Weather Roundup
Issued by NWS

Home | Current Version | Previous Version | Graphics & Text | Print | Product List | Glossary On
Versions: 1 2 3 4 5 6 7 8 9 10 11 12 13 14 15 16 17 18 19 20 21 22 23 24 25 26 27 28 29 30 31 32 33 34 35 36 37 38 39 40 41 42 43 44 45 46 47 48 49 50
000
ASUS43 KLOT 230410
RWRIL

ILLINOIS REGIONAL WEATHER ROUNDUP
NATIONAL WEATHER SERVICE CHICAGO/ROMEOVILLE IL
1100 PM CDT WED OCT 22 2014

NOTE: "FAIR" INDICATES FEW OR NO CLOUDS BELOW 12,000 FEET WITH NO
SIGNIFICANT WEATHER AND/OR OBSTRUCTIONS TO VISIBILITY.

* THESE STATIONS ARE NOT UNDER NWS QUALITY CONTROL. THEY ALSO MAY NOT
  REPORT WEATHER SUCH AS PRECIPITATION OR FOG.

ILZ001-002-007-009-015-016-024-230500-
NORTHWEST ILLINOIS

CITY           SKY/WX    TMP DP  RH WIND       PRES   REMARKS
MOLINE         CLEAR     42  35  76 SE6       30.22F
STERLING*      CLEAR     36  30  80 SE6       30.25F WCI  31
SAVANNA*       CLEAR     43  35  73 S3        30.22F
$$

ILZ003-004-008-010-011-017-018-230500-
NORTH CENTRAL ILLINOIS

CITY           SKY/WX    TMP DP  RH WIND       PRES   REMARKS
ROCKFORD       CLEAR     40  34  79 SE6       30.27F
FREEPORT*      CLEAR     37  33  85 SE6       30.26S WCI  32
ROCHELLE*      CLEAR     35  33  93 SE5       30.27S WCI  30
DE KALB*       CLEAR     37  34  87 SE3       30.27S
PERU*          CLEAR     44  36  73 SE7       30.27S
$$

ILZ005-006-012>014-019>023-230500-
NORTHEAST ILLINOIS

CITY           SKY/WX    TMP DP  RH WIND       PRES   REMARKS
CHICAGO-OHARE  CLEAR     39  35  86 CALM      30.27S
CHICAGO-MIDWAY CLEAR     45  37  73 CALM      30.28S
AURORA         CLEAR     36  31  82 CALM      30.28R
LANSING*       CLEAR     40  37  91 CALM      30.28S
JOLIET*        CLEAR     36  35  94 CALM      30.28S
WAUKEGAN       CLEAR     34  32  92 CALM      30.27S
DUPAGE AIRPORT CLEAR     38  33  82 CALM      30.27S
KANKAKEE*      CLEAR     39  37  90 E3        30.29R
WHEELING       CLEAR     39  35  86 CALM      30.30S
MORRIS*        CLEAR     39  37  91 CALM      30.27S
ROMEOVILLE*    CLEAR     39  35  85 CALM      30.28S
NORTHERLY ISL    N/A     50  42  74 SE8         N/A
$$

LMZ740>746-230500-
SOUTHERN LAKE MICHIGAN

STATION/POSITION SKY/WX   TEMP    WIND        PRES    VSBY  WAVE
                          AIR SEA DIR/SP/G                  HT/PER
                          (F)     (DEG/KT/KT) (MB)    (MI)  (FT/S)
SOUTHERN BUOY              51 54  120/ 10/ 14 1025.5F         1/ 3
WAUKEGAN HARBOR            46     220/  4/  5   N/A
HARRISON CRIB              51     130/  8/ 10   N/A
BURNHAM HARBOR             50     120/  6/  8   N/A
CALUMET HARBOR             47     180/  3/  4 1023.9F
MICHIGAN CITY              42     110/  8/ 10   N/A
$$

ILZ025>027-034>036-040-047-049-050-058-095>099-230500-
WEST-CENTRAL ILLINOIS

CITY           SKY/WX    TMP DP  RH WIND       PRES   REMARKS
QUINCY         CLEAR     47  40  76 SE7       30.20F
GALESBURG*     CLEAR     45  37  73 E5        30.23S
MACOMB*        CLEAR     39  36  88 SE7       30.25S WCI  34
JACKSONVILLE*  CLEAR     44  38  80 SE5       30.25S
PITTSFIELD*    CLEAR     42  39  91 E5        30.24F
$$

ILZ028>032-037-038-041>044-048-051>054-059>061-230500-
CENTRAL ILLINOIS

CITY           SKY/WX    TMP DP  RH WIND       PRES   REMARKS
PONTIAC        CLEAR     38  34  87 E5        30.28S WCI  34
BLOOMINGTON    CLEAR     41  36  82 SE3       30.27S
DECATUR        CLEAR     44  37  76 NE3       30.27R
PEORIA         CLEAR     43  37  79 CALM      30.26S
LACON*         CLEAR     39  33  79 CALM      30.26S
LINCOLN*       CLEAR     40  36  87 CALM      30.25F
SPRINGFIELD    CLEAR     39  36  89 E3        30.26S
TAYLORVILLE    CLEAR     39  37  93 CALM      30.25S
$$

ILZ033-039-045-046-055>057-062-063-230500-
EAST-CENTRAL ILLINOIS

CITY           SKY/WX    TMP DP  RH WIND       PRES   REMARKS
CHAMPAIGN      CLEAR     43  36  76 MISG      30.26S
DANVILLE*      CLEAR     39  37  89 CALM      30.24S
RANTOUL*       CLEAR     44  36  75 CALM      30.26S HAZE
MATTOON        CLEAR     43  39  86 CALM      30.25S
PARIS*         CLEAR     38  37  97 CALM      30.27S
$$

ILZ079-100>102-230500-
SOUTHWEST ILLINOIS

CITY           SKY/WX    TMP DP  RH WIND       PRES   REMARKS
ALTON          CLEAR     42  39  91 CALM      30.26R
BELLEVILLE     CLEAR     44  42  94 W1        30.24S
CAHOKIA*       CLEAR     43  41  93 CALM      30.25R
SPARTA*          N/A     43  41  93 CALM      30.25F FOG
$$

ILZ064>066-069>071-074>076-080>082-084>086-088>090-092>094-230500-
SOUTH-CENTRAL ILLINOIS

CITY           SKY/WX    TMP DP  RH WIND       PRES   REMARKS
CARBONDALE     CLEAR     39  38  96 CALM      30.25S
CAIRO*         CLEAR     46  42  86 CALM      30.23F
EFFINGHAM*     CLEAR     40  37  89 CALM      30.26R
MARION         CLEAR     43  41  93 CALM      30.25S
MT. VERNON     CLEAR     37  34  87 CALM      30.26R
CENTRALIA*     CLEAR     40  38  91 CALM      30.25S
SALEM*         CLEAR     44  42  91 CALM      30.26R
METROPOLIS*    CLEAR     44  44  99 CALM      30.23S
$$

ILZ067-068-072-073-078-083-087-091-230500-
SOUTHEAST ILLINOIS

CITY           SKY/WX    TMP DP  RH WIND       PRES   REMARKS
LAWRENCEVILLE  CLEAR     44  42  93 NE5       30.26R
FLORA*         CLEAR     43  41  93 CALM      30.26R
FAIRFIELD*     CLEAR     40  40  98 CALM      30.24S
HARRISBURG*    CLEAR     41  40  97 CALM      30.26S
ROBINSON*      CLEAR     39  39  99 CALM      30.27S
CARMI*         CLEAR     42  42  99 CALM      30.24S
$$

ABBREVIATIONS USED IN REMARKS
   TC - TEMPERATURE IN CELSIUS
  WCI - WIND CHILL INDEX
   HX - HEAT INDEX
  VSB - VISIBILITY
$$




USA.gov is the U.S. government's official web portal to all federal, state and local government web resources and services.